Location: Unspecified
(40.7945°N, 0.0000°E)
Time: 03:37:54
(UTC+00:00)

Altair - Pass Details

Date: 22 January 2021
Orbit: 1501 x 1682 km, 47.2° (Epoch: 01 March)

Event Time Altitude Azimuth Distance (km) Brightness Sun altitude
Rises 05:47:02 0° 237° (WSW) 4,859 - -17.2°
Exits shadow 05:48:44 - 237° (WSW) 4,325 9.4 -16.9°
Reaches altitude 10° 05:50:08 10° 236° (WSW) 3,892 9.2 -16.6°
Maximum altitude 06:00:12 85° 150° (SSE) 1,687 7.7 -14.8°
Drops below altitude 10° 06:10:25 10° 63° (ENE) 3,945 10.4 -12.9°
Sets 06:13:35 0° 64° (ENE) 4,927 11.0 -12.3°
